• Join FlightAware (Why Join?)
  • Login
  • US Flag 
07:28PM EDT


 

Airport Tracker/Info


-or-


 

Live Flight TrackerFlight Track Log ✈ SWA1714 ✈ 10-May-2013 ✈ KPDX - KPHX

Flight Track Log - Related Links

Times and Time Zones

All times are in EDT time to prevent confusion due to time zone crossing. See the SWA1714 flight status page for this flight to view local times or setup timezone preferences in your user account.

Time Position Orientation Groundspeed Altitude Reporting Facility
EDT Latitude Longitude Course Direction KTS MPH feet Rate Location/Type
10:47PM 45.5972 -122.6028 293° West 169 194 700  Level Seattle Center
10:48PM 45.6242 -122.6936 293° West 226 260 3,100 1,980 Climbing Seattle Center
10:49PM 45.6469 -122.7514 299° West 204 235 5,100 2,940 Climbing Seattle Center
10:50PM 45.6125 -122.8361 240° Southwest 229 264 8,700 2,760 Climbing Seattle Center
10:51PM 45.5628 -122.7825 143° Southeast 252 290 10,800 1,740 Climbing Seattle Center
10:52PM 45.5231 -122.6633 115° Southeast 306 352 12,300 1,980 Climbing Seattle Center
10:53PM 45.4817 -122.5356 115° Southeast 344 396 14,900 2,280 Climbing Seattle Center
10:54PM 45.4292 -122.4108 121° Southeast 360 414 17,000 2,040 Climbing Seattle Center
10:55PM 45.3672 -122.2872 125° Southeast 378 435 19,100 1,920 Climbing Seattle Center
10:56PM 45.2853 -122.1814 138° Southeast 398 458 21,000 1,860 Climbing Seattle Center
10:57PM 45.2044 -122.0733 137° Southeast 399 459 22,900 1,500 Climbing Seattle Center
10:58PM 45.1142 -121.9606 139° Southeast 419 482 24,100 1,320 Climbing Seattle Center
10:59PM 45.0275 -121.8461 137° Southeast 425 489 25,700 1,380 Climbing Seattle Center
11:00PM 44.9356 -121.7264 137° Southeast 441 507 27,000 1,380 Climbing Seattle Center
11:01PM 44.8408 -121.6072 138° Southeast 454 522 28,600 1,320 Climbing Seattle Center
11:02PM 44.7481 -121.4889 138° Southeast 453 521 29,800 1,140 Climbing Seattle Center
11:04PM 44.6514 -121.3683 138° Southeast 463 533 31,000 1,260 Climbing Seattle Center
11:05PM 44.5414 -121.2283 138° Southeast 468 539 32,400 960 Climbing Seattle Center
11:06PM 44.4428 -121.1058 138° Southeast 468 539 33,000 240 Climbing Seattle Center
11:07PM 44.3403 -120.9783 138° Southeast 476 548 33,000 780 Level Seattle Center
11:08PM 44.2414 -120.8567 139° Southeast 478 550 34,600 960 Climbing Seattle Center
11:09PM 44.1447 -120.7389 139° Southeast 469 540 35,000 180 Climbing Seattle Center
11:10PM 44.0458 -120.6181 139° Southeast 475 547 35,000  Level Seattle Center
11:11PM 43.9450 -120.4950 139° Southeast 485 558 35,000  Level Seattle Center
11:12PM 43.8461 -120.3764 139° Southeast 476 548 35,000  Level Seattle Center
11:13PM 43.7497 -120.2569 138° Southeast 469 540 35,000  Level Seattle Center
11:14PM 43.6536 -120.1400 139° Southeast 464 534 35,000  Level Seattle Center
11:15PM 43.5567 -120.0253 139° Southeast 461 531 35,000  Level Seattle Center
11:16PM 43.4606 -119.9111 139° Southeast 460 529 35,000  Level Seattle Center
11:17PM 43.3631 -119.7944 139° Southeast 465 535 35,000  Level Seattle Center
11:18PM 43.2608 -119.6775 140° Southeast 470 541 35,000  Level Seattle Center
11:19PM 43.1617 -119.5583 139° Southeast 473 544 35,000  Level Seattle Center
11:20PM 43.0600 -119.4403 140° Southeast 477 549 35,000  Level Seattle Center
11:21PM 42.9558 -119.3197 140° Southeast 487 560 35,000  Level Seattle Center
11:22PM 42.8383 -119.1828 139° Southeast 472 543 35,000  Level Seattle Center
11:23PM 42.7583 -119.0881 139° Southeast 468 539 35,000  Level Seattle Center
11:24PM 42.6394 -118.9519 140° Southeast 465 535 35,000  Level Seattle Center
11:25PM 42.5394 -118.8386 140° Southeast 464 534 35,000 120 Level Seattle Center
11:26PM 42.4392 -118.7242 140° Southeast 473 544 35,300 420 Climbing Seattle Center
11:27PM 42.3394 -118.6097 140° Southeast 472 543 35,900 540 Climbing Seattle Center
11:28PM 42.2411 -118.4994 140° Southeast 479 551 36,500 540 Climbing Seattle Center
11:29PM 42.1436 -118.3892 140° Southeast 479 551 37,000 240 Climbing Seattle Center
11:30PM 42.0300 -118.2633 141° Southeast 474 545 37,000  Level Seattle Center
11:31PM 41.9328 -118.1533 140° Southeast 477 549 37,000  Level Seattle Center
11:32PM 41.8381 -118.0472 140° Southeast 467 537 37,000  Level Seattle Center
11:33PM 41.7300 -117.9153 138° Southeast 468 539 37,000  Level Seattle Center
11:34PM 41.6225 -117.7831 137° Southeast 469 540 37,000  Level Salt Lake Center
11:35PM 41.5317 -117.6672 136° Southeast 470 541 37,000  Level Salt Lake Center
11:36PM 41.4242 -117.5331 137° Southeast 471 542 37,000  Level Salt Lake Center
11:37PM 41.3319 -117.4203 137° Southeast 472 543 37,000  Level Salt Lake Center
11:38PM 41.2236 -117.2861 137° Southeast 473 544 37,000  Level Salt Lake Center
11:39PM 41.1314 -117.1728 137° Southeast 473 544 37,000  Level Salt Lake Center
11:40PM 41.0389 -117.0589 137° Southeast 472 543 37,000  Level Salt Lake Center
11:41PM 40.9308 -116.9272 137° Southeast 473 544 37,000  Level Salt Lake Center
11:42PM 40.8375 -116.8131 137° Southeast 473 544 37,000  Level Salt Lake Center
11:43PM 40.7436 -116.7003 138° Southeast 471 542 37,000  Level Salt Lake Center
11:44PM 40.6347 -116.5692 138° Southeast 471 542 37,000  Level Salt Lake Center
11:45PM 40.5422 -116.4572 137° Southeast 469 540 37,000  Level Salt Lake Center
11:46PM 40.4522 -116.3522 138° Southeast 452 520 37,000  Level Salt Lake Center
11:47PM 40.3500 -116.2297 138° Southeast 445 512 37,000  Level Salt Lake Center
11:48PM 40.2606 -116.1250 138° Southeast 447 514 37,000  Level Salt Lake Center
11:49PM 40.1719 -116.0194 138° Southeast 448 516 37,000  Level Salt Lake Center
11:50PM 40.0694 -115.8978 138° Southeast 446 513 37,000  Level Salt Lake Center
11:51PM 39.9803 -115.7933 138° Southeast 447 514 37,000  Level Salt Lake Center
11:52PM 39.8883 -115.6892 139° Southeast 455 524 37,000  Level Salt Lake Center
11:53PM 39.7836 -115.5694 139° Southeast 451 519 37,000  Level Salt Lake Center
11:54PM 39.6914 -115.4697 140° Southeast 449 517 37,000  Level Salt Lake Center
11:55PM 39.5906 -115.3786 145° Southeast 456 525 37,000  Level Salt Lake Center
11:56PM 39.4756 -115.2747 145° Southeast 453 521 37,000  Level Salt Lake Center
11:57PM 39.3742 -115.1869 146° Southeast 457 526 37,000  Level Salt Lake Center
11:58PM 39.2742 -115.0983 146° Southeast 455 524 37,000  Level Salt Lake Center
11:59PM 39.1572 -114.9950 146° Southeast 456 525 37,000  Level Salt Lake Center
12:00AM 39.0678 -114.9131 145° Southeast 456 525 37,000  Level Salt Lake Center
12:02AM 38.9425 -114.8019 145° Southeast 457 526 37,000  Level Salt Lake Center
12:03AM 38.8378 -114.7086 145° Southeast 458 527 37,000  Level Salt Lake Center
12:04AM 38.7319 -114.6169 146° Southeast 460 529 37,000  Level Salt Lake Center
12:05AM 38.6269 -114.5247 146° Southeast 461 531 37,000  Level Salt Lake Center
12:06AM 38.5206 -114.4342 146° Southeast 460 529 37,000  Level Salt Lake Center
12:07AM 38.4147 -114.3428 146° Southeast 460 529 37,000  Level Salt Lake Center
12:08AM 38.2894 -114.2325 145° Southeast 457 526 37,000  Level Salt Lake Center
12:09AM 38.1825 -114.1431 147° Southeast 460 529 37,000  Level Salt Lake Center
12:10AM 38.0781 -114.0536 146° Southeast 456 525 37,000  Level Salt Lake Center
12:11AM 37.9722 -113.9639 146° Southeast 458 527 37,000  Level Salt Lake Center
12:12AM 37.8469 -113.8556 146° Southeast 457 526 37,000  Level Salt Lake Center
12:13AM 37.7417 -113.7667 146° Southeast 459 528 37,000  Level Salt Lake Center
12:14AM 37.6394 -113.6808 146° Southeast 449 517 37,000  Level Salt Lake Center
12:15AM 37.5372 -113.5961 147° Southeast 444 511 37,000  Level Salt Lake Center
12:16AM 37.4322 -113.5078 146° Southeast 455 524 37,000  Level Salt Lake Center
12:16AM 37.3689 -113.4525 145° Southeast 458 527 37,000  Level Los Angeles Center
12:17AM 37.2856 -113.3822 146° Southeast 457 526 37,000  Level Los Angeles Center
12:18AM 37.2244 -113.3319 147° Southeast 454 522 37,000  Level Salt Lake Center
12:19AM 37.1250 -113.2500 147° Southeast 440 506 37,000  Level Salt Lake Center
12:20AM 37.0644 -113.1992 146° Southeast 437 503 37,000  Level Los Angeles Center
12:21AM 36.9806 -113.1300 147° Southeast 446 513 37,000  Level Los Angeles Center
12:22AM 36.8542 -113.0236 146° Southeast 457 526 37,000  Level Los Angeles Center
12:23AM 36.7508 -112.9408 147° Southeast 445 512 37,000  Level Los Angeles Center
12:24AM 36.6086 -112.8247 147° Southeast 440 506 37,000 -660 Level Los Angeles Center
12:25AM 36.5272 -112.7572 146° Southeast 439 505 35,700 -1,980 Descending Los Angeles Center
12:26AM 36.4011 -112.6572 147° Southeast 449 517 33,000 -1,500 Descending Los Angeles Center
12:27AM 36.2972 -112.5728 147° Southeast 449 517 32,700 -600 Descending Los Angeles Center
12:28AM 36.1933 -112.4881 147° Southeast 448 516 31,800 -960 Descending Los Angeles Center
12:29AM 36.0833 -112.4114 151° Southeast 462 532 30,800 -1,020 Descending Los Angeles Center
12:30AM 35.9553 -112.4058 178° South 465 535 29,800 -900 Descending Los Angeles Center
12:31AM 35.8314 -112.4122 182° South 460 529 29,000 -420 Descending Los Angeles Center
12:32AM 35.7028 -112.4189 182° South 462 532 29,000  Level Los Angeles Center
12:33AM 35.5508 -112.4269 182° South 455 524 29,000  Level Los Angeles Center
12:34AM 35.3989 -112.4386 184° South 445 512 29,000  Level Los Angeles Center
12:35AM 35.2797 -112.4131 170° South 442 509 29,000  Level Los Angeles Center
12:36AM 35.2556 -112.4078 170° South 439 505 29,000  Level Albuquerque Center
12:37AM 35.1364 -112.3811 170° South 436 502 29,000 -60 Level Albuquerque Center
12:38AM 35.0186 -112.3561 170° South 431 496 28,900 -1,140 Descending Albuquerque Center
12:39AM 34.9019 -112.3311 170° South 426 490 26,700 -1,440 Descending Albuquerque Center
12:40AM 34.7864 -112.3064 170° South 424 488 26,000 -1,320 Descending Albuquerque Center
12:41AM 34.6689 -112.2797 169° South 420 483 24,100 -2,040 Descending Albuquerque Center
12:42AM 34.5572 -112.2553 170° South 411 473 21,900 -2,040 Descending Albuquerque Center
12:43AM 34.4283 -112.2269 170° South 396 456 20,000 -1,800 Descending Albuquerque Center
12:44AM 34.3269 -112.1997 167° South 380 437 18,300 -1,860 Descending Albuquerque Center
12:45AM 34.2286 -112.1733 167° South 368 423 16,300 -2,040 Descending Albuquerque Center
12:46AM 34.1317 -112.1481 168° South 363 418 14,300 -1,740 Descending Albuquerque Center
12:47AM 34.0433 -112.1400 176° South 328 377 12,800 -1,140 Descending Albuquerque Center
12:48AM 33.9608 -112.1497 186° South 307 353 12,000 -960 Descending Albuquerque Center
12:49AM 33.8908 -112.1592 186° South 267 307 10,900 -1,440 Descending Albuquerque Center
12:50AM 33.8197 -112.1733 189° South 259 298 9,200 -1,380 Descending Albuquerque Center
12:51AM 33.7494 -112.1897 191° South 258 297 8,100 -960 Descending Albuquerque Center
12:52AM 33.6803 -112.1956 184° South 252 290 7,300 -900 Descending Albuquerque Center
12:53AM 33.6122 -112.1958 180° South 245 282 6,400 -840 Descending Albuquerque Center
12:54AM 33.5364 -112.1942 179° South 230 265 5,700 -1,020 Descending Albuquerque Center
12:55AM 33.4872 -112.1950 181° South 188 216 4,400 -1,320 Descending Albuquerque Center
12:56AM 33.4517 -112.1581 139° Southeast 192 221 3,100 -1,020 Descending Albuquerque Center
12:57AM 33.4406 -112.0967 102° East 192 221 2,400  Descending Albuquerque Center
12:58AM 33.4400 -112.0269 91° East 201 231 3,100 1,380 Climbing Albuquerque Center
12:59AM 33.4264 -111.9517 102° East 222 255 5,200 1,380 Climbing Albuquerque Center
01:00AM 33.3922 -111.8839 121° Southeast 240 276 6,000 360 Climbing Albuquerque Center
01:01AM 33.3603 -111.8225 122° Southeast 229 264 6,000  Level Albuquerque Center
01:02AM 33.3747 -111.7617 74° East 220 253 6,000 -660 Level Albuquerque Center
01:03AM 33.4114 -111.8086 313° West 200 230 4,700 -960 Descending Albuquerque Center
01:04AM 33.4400 -111.8611 303° West 196 226 4,100 -1,200 Descending Albuquerque Center
01:05AM 33.4422 -111.9064 273° West 164 189 2,400 -1,200 Descending Albuquerque Center
01:06AM 33.4419 -111.9542 270° West 151 174 1,700 -540 Descending Albuquerque Center
01:07AM 33.4414 -112.0106 269° West 148 170 1,400 -300 Descending Albuquerque Center